#timestamp,LO_Frequency,Hit 
1503028815.2,286046999.9,N
1503028835.0,286047000.2,N
1503028835.9,286047000.2,N
1503028855.8,286047001.0,N
1503028875.6,286046999.7,N
1503028895.4,286047000.4,N
1503028915.3,286047001.3,N
1503028935.1,286047005.6,N
1503028936.0,286047005.6,N
1503028955.8,286047003.1,N
1503028975.7,286047003.0,N
1503028995.5,286047003.3,N
1503029015.3,286047006.0,N
1503029035.2,286047005.5,N
1503029055.9,286047001.4,N
1503029075.7,286047003.8,N
1503029095.5,286047005.6,N
1503029115.4,286047005.0,N
1503029135.2,286047005.4,N
1503029155.0,286047003.3,N
1503029155.9,286047003.3,N
1503029175.8,286047005.5,N
1503029195.6,286047007.4,P
1503029215.4,286047000.3,N
1503029235.3,286047002.0,N
1503029255.1,286047000.1,N
1503029275.8,286047000.9,N
1503029295.7,286046999.7,N
1503029315.5,286047002.8,N
1503029335.3,286047002.7,N
1503029355.2,286047001.9,N
1503029375.9,286047003.5,N
1503029395.7,286047001.6,N
1503029415.6,286047005.9,N
1503029435.4,286047006.0,N
1503029455.2,286047001.7,N
1503029475.0,286047005.6,N
1503029476.0,286047005.6,N
1503029495.8,286047006.0,N
1503029515.6,286047003.1,N
1503029535.4,286047003.6,N
1503029555.3,286047005.8,N
1503029575.1,286047005.7,N
1503029595.8,286047005.8,N
1503029615.7,286047007.6,P
1503029635.5,286047001.7,N
1503029655.3,286047001.7,N
1503029675.2,286047004.3,N
1503029695.9,286047003.9,N
1503029715.7,286047001.5,N
1503029735.6,286047002.1,N
1503029755.4,286047002.2,N
1503029775.2,286047000.7,N
1503029795.1,286046998.2,N
1503029796.0,286046998.2,N
1503029815.8,286046996.6,N
1503029835.6,286046999.3,N
1503029855.5,286046997.2,N
1503029875.3,286046999.1,N
1503029895.1,286047001.2,N
1503029915.8,286046997.1,N
1503029935.7,286046997.8,N
1503029955.5,286046998.8,N
1503029975.3,286047001.1,N
1503029995.2,286046998.1,N
1503030015.9,286047000.7,N
1503030035.7,286046998.8,N
1503030055.6,286047001.2,N
1503030075.4,286047000.9,N
1503030095.2,286047000.4,N
1503030115.1,286046998.1,N
1503030116.0,286046998.1,N
1503030135.8,286047001.2,N
1503030155.6,286047002.7,N
1503030175.4,286047002.6,N
1503030195.3,286047004.1,N
1503030215.1,286047004.8,N
1503030235.8,286047003.4,N
1503030255.7,286047003.9,N
1503030275.5,286047003.7,N
1503030295.3,286047006.2,N
1503030315.2,286047007.5,N
1503030335.9,286047002.9,N
1503030355.7,286047004.1,N
1503030375.6,286047004.0,N
1503030395.4,286047003.5,N
1503030415.2,286047003.1,N
1503030435.1,286047005.4,N
1503030436.0,286047005.4,N
1503030455.8,286047008.9,P
1503030475.6,286047007.4,N
1503030495.5,286047005.6,N
1503030515.3,286047001.4,N
1503030535.1,286047002.9,N
1503030555.9,286047005.7,N
1503030575.7,286047001.3,N
1503030595.5,286047001.3,N
1503030615.4,286047001.9,N
1503030635.2,286046999.7,N
1503030655.0,286047000.9,N
1503030655.9,286047000.9,N
1503030675.7,286047000.4,N
1503030695.6,286047000.3,N
1503030715.4,286046998.8,N
1503030735.2,286046998.5,N
1503030755.1,286046998.6,N
1503030756.0,286046998.6,N
1503030775.8,286046999.6,N
1503030795.6,286047001.0,N
1503030815.5,286046998.2,N
1503030835.3,286047000.8,N
1503030855.1,286046998.9,N
1503030875.9,286046998.6,N
1503030895.7,286047000.7,N
1503030915.5,286046998.5,N
1503030935.4,286047000.1,N
1503030955.2,286047002.1,N
1503030975.0,286047002.7,N
1503030975.9,286047002.7,N
1503030995.7,286046999.9,N
1503031015.6,286047000.8,N
1503031035.4,286046998.9,N
1503031055.2,286047001.0,N
1503031075.1,286046998.5,N
1503031076.0,286046998.5,N
1503031095.8,286046998.1,N
1503031115.6,286046998.3,N
1503031135.5,286047002.4,N
1503031155.3,286047002.7,N
1503031175.1,286047002.8,N
1503031195.9,286047002.7,N
1503031215.7,286047002.8,N
1503031235.5,286046999.7,N
1503031255.4,286047000.1,N
1503031275.2,286047000.2,N
1503031295.0,286047002.5,N
1503031295.9,286047002.5,N
1503031315.8,286047000.2,N
1503031335.6,286047002.6,N
1503031355.4,286046999.8,N
1503031375.2,286047002.2,N
1503031395.1,286046999.7,N
1503031396.0,286046999.7,N
1503031415.8,286047001.9,N
1503031435.6,286047004.3,N
1503031455.5,286046999.7,N
1503031475.3,286047000.1,N
1503031495.1,286047004.3,N
1503031515.9,286047002.5,N
1503031535.7,286047003.9,N
1503031555.5,286047002.0,N
1503031575.4,286047002.1,N
1503031595.2,286047005.6,P
1503031615.0,286047001.9,N
1503031615.9,286047001.9,N
1503031635.8,286047002.1,N
1503031655.6,286047002.2,N
1503031675.4,286047000.5,N
1503031695.3,286047002.1,N
1503031715.1,286047000.4,N
1503031716.0,286047000.4,N
1503031735.8,286047004.4,P
1503031755.7,286046999.9,N
1503031775.5,286047000.7,N
1503031795.3,286046998.1,N
1503031815.2,286046999.5,N
1503031835.9,286046999.5,N
1503031855.7,286046996.6,N
1503031875.6,286046998.2,N
1503031895.4,286046999.2,N
1503031915.2,286047000.0,N
1503031935.0,286047000.3,N
1503031936.0,286047000.3,N
1503031955.8,286047000.0,N
1503031975.6,286047002.8,N
1503031995.4,286046999.9,N
1503032015.3,286047002.8,N
1503032035.1,286047002.3,N
1503032055.8,286047000.6,N
1503032075.7,286047002.1,N
1503032095.5,286046999.8,N
1503032115.3,286047004.0,N
1503032135.2,286047004.4,N
1503032155.9,286047002.0,N
1503032175.7,286047000.7,N
1503032195.5,286047000.1,N
1503032215.4,286047001.8,N
1503032235.2,286047003.8,N
1503032255.0,286047001.8,N
1503032255.9,286047001.8,N
1503032275.8,286047001.5,N
1503032295.6,286047001.9,N
1503032315.4,286047000.4,N
1503032335.3,286046998.1,N
1503032355.1,286046998.1,N
1503032375.8,286046998.7,N
1503032395.7,286046998.7,N
